EA5AER-5 Weather Reports


Display with metric or nautical units.
time (UTC)temp
F
wind
direction
speed
MPH
gust
MPH
rain 1hr
in
rain 24hr
in
rain mn
in
humidity
%
barometer
mb
20260510174018 73 194 14.0 26.0 0.00 0.00 0.00 52 1007.9
20260510172103 73 184 11.0 20.0 0.00 0.00 0.00 54 1007.7
20260510170108 74 198 9.0 21.0 0.00 0.00 0.00 54 1008.0
20260510164023 74 198 9.0 21.0 0.00 0.00 0.00 54 1008.0
20260510162033 75 190 10.0 20.0 0.00 0.00 0.00 52 1008.1
20260510160043 75 209 12.0 24.0 0.00 0.00 0.00 52 1008.4
20260510154058 74 155 14.0 25.0 0.00 0.00 0.00 54 1008.2
20260510152029 75 192 13.0 26.0 0.00 0.00 0.00 53 1008.3
20260510145850 74 146 7.0 17.0 0.00 0.00 0.00 56 1008.7
20260510143920 74 124 7.0 14.0 0.00 0.00 0.00 53 1009.1
20260510141758 74 124 7.0 14.0 0.00 0.00 0.00 53 1009.1
20260510135733 74 120 10.0 21.0 0.00 0.00 0.00 53 1009.6
20260510133744 73 154 11.0 23.0 0.00 0.00 0.00 54 1009.9
20260510131852 75 112 12.0 18.0 0.00 0.03 0.00 49 1009.9
20260510130003 75 140 13.0 24.0 0.00 0.05 0.00 48 1010.2
20260510124251 75 140 13.0 24.0 0.00 0.05 0.00 48 1010.2
20260510122331 75 140 13.0 24.0 0.00 0.05 0.00 48 1010.2
20260510122222 75 140 13.0 24.0 0.00 0.05 0.00 48 1010.2
20260510120308 69 71 7.0 12.0 0.00 0.51 0.00 68 1012.2
20260510114310 69 71 7.0 12.0 0.00 0.51 0.00 68 1012.2
20260510112458 69 71 7.0 12.0 0.00 0.51 0.00 68 1012.2
20260510110439 69 71 7.0 12.0 0.00 0.51 0.00 68 1012.2
20260510104613 69 71 7.0 12.0 0.00 0.51 0.00 68 1012.2
20260510102513 69 71 7.0 12.0 0.00 0.51 0.00 68 1012.2
20260510100449 69 72 4.0 6.0 0.00 0.52 0.00 64 1012.3
20260510094329 69 72 4.0 6.0 0.00 0.52 0.00 64 1012.3
20260510092238 69 44 2.0 3.0 0.00 0.94 0.00 68 1012.4
20260510090204 69 44 2.0 3.0 0.00 0.94 0.00 68 1012.4
20260510084224 69 44 2.0 3.0 0.00 0.94 0.00 68 1012.4
20260510082241 69 44 2.0 3.0 0.00 0.94 0.00 68 1012.4
20260510080207 69 44 2.0 3.0 0.00 0.94 0.00 68 1012.4
20260510074146 69 120 1.0 2.0 0.00 0.96 0.00 69 1012.7
20260510072131 69 120 1.0 2.0 0.00 0.96 0.00 69 1012.7
20260510070013 64 140 1.0 3.0 0.00 0.98 0.00 80 1012.1
20260510064010 64 140 1.0 3.0 0.00 0.98 0.00 80 1012.1
20260510062124 62 177 0.0 2.0 0.00 1.13 0.00 79 1011.9
20260510060104 62 177 0.0 2.0 0.00 1.13 0.00 79 1011.9
20260510054213 60 24 1.0 3.0 0.00 1.13 0.00 82 1011.4
20260510052243 60 24 1.0 3.0 0.00 1.13 0.00 82 1011.4
20260510050137 60 24 1.0 3.0 0.00 1.13 0.00 82 1011.4
20260510044101 60 24 1.0 3.0 0.00 1.13 0.00 82 1011.4
20260510042044 59 251 2.0 3.0 0.00 1.13 0.00 83 1011.3
20260510040059 59 211 0.0 0.0 0.00 1.13 0.00 84 1011.3
20260510034002 59 211 0.0 0.0 0.00 1.13 0.00 84 1011.3
20260510031904 59 286 0.0 0.0 0.00 1.13 0.00 83 1011.4
20260510025848 59 286 0.0 0.0 0.00 1.13 0.00 83 1011.4
20260510023849 59 219 0.0 0.0 0.00 1.13 0.00 85 1011.4
20260510021744 59 219 0.0 0.0 0.00 1.13 0.00 85 1011.4
20260510015742 59 219 0.0 0.0 0.00 1.13 0.00 85 1011.4
20260510013729 60 219 0.0 0.0 0.00 1.13 0.00 86 1011.4
20260510011715 60 219 0.0 0.0 0.00 1.13 0.00 85 1011.5
20260510005549 60 219 0.0 0.0 0.00 1.13 0.00 84 1011.6
20260510003633 61 219 0.0 0.0 0.00 1.13 0.00 84 1012.0
20260510001534 60 184 2.0 3.0 0.00 1.13 0.00 85 1012.3
20260509235437 60 236 1.0 3.0 0.00 1.13 0.00 85 1012.2
20260509233419 61 240 1.0 2.0 0.00 1.13 0.00 84 1012.2
20260509231444 61 240 1.0 2.0 0.00 1.13 0.00 84 1012.2
20260509225359 61 240 1.0 2.0 0.00 1.13 0.00 84 1012.2
20260509223523 61 246 2.0 5.0 0.00 1.13 0.00 84 1012.3
20260509221529 61 246 2.0 5.0 0.00 1.13 0.00 84 1012.3
20260509215434 61 255 1.0 3.0 0.00 1.13 1.13 82 1012.4
20260509213309 63 250 5.0 7.0 0.00 1.13 1.13 79 1012.4
20260509211120 63 6 1.0 3.0 0.00 1.13 1.13 83 1011.9
20260509205157 63 6 1.0 3.0 0.00 1.13 1.13 83 1011.9
20260509203116 64 123 1.0 2.0 0.00 1.13 1.13 80 1010.8
20260509201148 64 123 1.0 2.0 0.00 1.13 1.13 80 1010.8
20260509195120 64 123 1.0 2.0 0.00 1.13 1.13 80 1010.8
20260509193059 64 123 1.0 2.0 0.00 1.13 1.13 80 1010.8
20260509191113 64 123 1.0 2.0 0.00 1.13 1.13 80 1010.8
20260509185023 65 14 3.0 3.0 0.00 1.13 1.13 76 1010.2
20260509182849 65 14 3.0 3.0 0.00 1.13 1.13 76 1010.2
20260509180928 65 14 3.0 3.0 0.00 1.13 1.13 76 1010.2
20260509175039 65 338 3.0 6.0 0.00 1.13 1.13 75 1010.1